{"data":{"norad_id":62245,"epoch":"2026-09-22T20:25:29.385120Z","epoch_age_seconds":107062,"freshness":"FRESH","line1":"1 62245U 24232J   26265.85103455  .00000105  00000+0  14409-3 0  9990","line2":"2 62245  89.0167  12.5708 0015629  94.5039 265.7898 13.51030502137699","mean_motion":13.51030502,"eccentricity":0.0015629,"inclination_deg":89.0167,"raan_deg":12.5708,"arg_perigee_deg":94.5039,"mean_anomaly_deg":265.7898,"bstar":0.00014409,"rev_number":13769,"period_min":106.58530639155,"perigee_km":1056.8312012693,"apogee_km":1080.107803875,"semimajor_km":7446.6065025722,"source":"CELESTRAK","updated_at":"2026-09-23T09:00:21.308868Z"}}